Theta_e
307 308 308 308 308 308 308 306 304 305 306 306 306 306 306 305 305 312 313 308 307 304 307 310 312 313 322 324 327 328 330 330 329 327 325 325 325 325 328 328 332 335 337 338 339
307 307 308 308 308 308 306 304 306 306 307 308 307 306 305 306 313 313 309 310 310 307 311 312 314 315 321 324 327 330 332 331 329 328 326 325 324 325 325 328 333 335 335 337 341
307 307 307 307 307 307 304 304 306 306 307 307 306 305 305 308 315 316 310 310 308 309 311 312 313 316 317 323 325 328 332 330 330 329 328 327 324 325 325 328 332 335 335 336 341
306 307 307 307 307 305 302 303 305 306 306 306 306 306 307 314 314 311 307 309 309 311 310 313 316 315 316 318 323 326 327 329 330 329 329 327 325 325 326 326 327 334 335 334 335
306 306 306 306 305 303 301 303 305 306 306 306 306 307 313 316 311 309 309 311 312 311 311 311 313 317 317 317 319 324 325 326 327 328 329 329 327 326 326 326 327 330 333 333 332
306 306 306 306 304 300 301 303 305 306 306 305 307 308 316 315 309 310 310 311 311 312 312 312 312 314 316 318 318 319 322 323 324 325 327 329 330 329 328 326 327 326 327 330 331
305 305 305 305 302 300 301 304 306 306 305 305 307 312 316 311 310 310 311 311 312 311 312 312 312 312 314 317 317 318 319 319 321 323 325 326 328 328 329 329 329 328 328 328 330
302 302 304 305 304 301 303 305 305 304 305 307 307 315 317 309 309 309 309 310 310 311 311 311 311 312 312 312 314 316 318 319 320 321 322 323 327 327 327 329 330 330 331 331 332
297 299 301 304 301 302 304 305 305 306 307 307 315 316 315 309 310 308 308 310 309 310 310 311 312 312 312 311 311 313 317 319 318 319 320 322 325 325 326 327 330 331 330 331 332
300 299 299 302 301 302 305 308 309 309 313 314 313 314 314 310 309 308 309 309 310 311 312 312 314 313 313 312 311 312 313 316 317 318 319 320 322 323 324 326 327 329 330 331 331
305 303 302 304 301 304 308 313 315 317 312 311 312 311 310 309 309 309 309 309 311 311 312 313 314 315 314 313 313 313 312 313 316 318 319 319 321 322 323 324 325 328 329 331 331
305 306 305 305 302 305 309 312 311 310 312 312 311 310 309 309 309 310 308 309 310 311 311 311 312 312 313 313 312 311 313 314 314 315 319 320 321 321 323 323 324 325 327 329 329
305 306 305 305 303 309 310 311 310 310 313 312 310 310 310 309 310 309 309 309 309 310 310 311 311 311 311 311 312 311 312 312 313 315 317 320 321 322 322 322 323 323 324 326 327
305 303 305 302 309 309 312 310 310 310 314 312 310 310 309 310 310 309 308 309 309 310 309 310 310 310 310 310 311 312 312 311 312 313 315 318 323 322 322 323 323 324 324 325 326
305 303 304 304 311 312 311 310 310 311 319 310 310 309 310 310 310 310 308 308 310 310 309 309 310 311 311 311 312 311 311 311 311 312 314 314 318 319 321 323 323 324 324 325 325
305 304 304 306 312 311 311 310 311 318 317 310 310 310 310 311 311 310 310 310 310 309 310 311 312 313 311 312 312 313 311 311 312 312 314 314 317 318 320 321 322 323 324 324 324
305 306 308 310 314 310 310 311 317 316 311 311 310 311 311 312 310 310 310 310 309 309 310 311 311 313 313 315 313 312 311 311 311 312 313 314 318 318 319 320 321 322 323 324 324
305 307 309 311 312 311 311 315 316 311 310 311 311 311 312 310 310 310 310 310 308 311 312 312 315 312 311 315 315 314 311 311 311 311 311 313 315 317 319 321 321 321 321 321 324
307 312 312 313 312 310 313 316 314 312 309 310 311 312 312 311 310 310 310 309 308 309 312 313 313 310 311 314 312 314 313 313 315 314 315 313 314 317 317 319 320 321 322 323 325
308 312 314 311 311 311 315 315 311 309 309 310 313 312 312 311 311 310 311 310 309 309 309 310 311 310 312 313 313 313 315 318 316 314 313 313 315 317 316 318 320 321 324 325 325
310 312 311 309 309 314 316 312 309 308 308 311 312 312 312 311 312 311 311 310 310 309 310 309 311 311 311 312 315 314 315 315 318 316 315 313 317 317 319 318 320 321 323 324 330
310 314 311 307 312 314 313 308 305 309 310 311 311 311 312 311 311 312 312 311 311 310 310 311 313 313 311 311 313 311 311 314 317 315 318 317 316 317 321 323 321 322 322 323 334
311 311 310 308 316 314 312 310 307 309 310 311 311 310 311 311 312 313 312 310 310 311 311 315 313 315 312 310 315 315 314 314 315 316 320 322 322 320 322 322 322 322 321 321 325
309 312 311 309 309 311 313 312 309 308 309 310 311 310 311 312 312 312 311 311 311 312 312 311 315 314 314 311 314 315 314 313 317 318 317 317 316 317 318 320 320 320 320 319 323
309 311 309 310 311 310 311 312 310 309 309 309 309 310 310 313 312 312 312 312 311 312 313 312 315 313 313 312 311 311 311 310 311 311 313 313 312 315 317 319 319 318 317 319 321
309 308 307 308 310 309 309 312 311 309 310 310 310 310 309 311 311 312 311 313 315 313 314 313 317 314 313 312 312 311 311 310 310 310 310 310 311 312 313 315 315 316 316 317 321
303 302 305 306 310 309 309 309 309 308 309 309 309 310 311 311 311 312 312 313 314 313 314 315 314 314 315 312 312 314 311 310 310 310 310 310 311 312 313 314 315 316 316 317 319
Wind_Speed
16 16 17 17 18 18 17 16 15 15 15 16 17 17 17 18 19 17 9 5 7 10 11 14 16 16 17 21 24 19 17 19 25 23 20 12 13 18 16 17 15 11 13 13 25
17 17 18 18 18 18 17 14 14 15 18 18 17 16 16 18 18 4 4 5 10 12 11 11 14 16 16 18 20 21 18 29 24 21 16 16 15 19 20 13 19 12 3 6 15
17 18 18 19 18 18 16 13 13 15 17 17 15 15 18 14 11 7 3 11 15 11 13 12 15 18 23 21 23 26 28 26 25 24 19 15 19 19 22 16 20 15 12 9 17
19 19 19 19 19 18 16 14 14 15 16 17 17 17 14 9 2 6 8 7 7 8 10 13 12 18 22 26 25 28 33 29 30 29 22 15 16 22 23 22 21 20 20 14 9
19 19 20 20 19 18 14 14 15 17 19 16 16 17 9 8 8 3 6 9 11 8 8 10 14 16 23 24 24 32 30 30 29 25 25 24 20 25 24 25 22 22 9 11 12
19 20 20 20 20 17 14 13 14 17 18 15 11 10 8 8 4 5 9 9 9 9 11 9 11 15 20 23 26 26 28 32 29 28 28 27 29 22 29 23 26 26 26 19 21
21 21 21 21 19 16 14 12 15 18 16 11 9 7 12 6 4 7 7 8 7 9 10 12 10 15 12 16 25 25 27 28 28 26 32 27 27 27 31 28 26 28 25 22 23
22 24 23 22 20 16 14 15 18 16 10 6 7 7 7 1 6 7 12 11 8 8 12 13 14 16 19 20 28 21 21 26 35 28 29 24 37 36 30 28 29 29 26 23 27
24 27 25 22 19 15 12 16 10 5 5 6 5 9 5 6 2 12 11 10 14 14 10 10 14 15 15 16 18 21 25 28 31 29 29 29 36 32 31 31 29 29 29 26 27
27 28 25 23 17 13 13 11 6 3 3 6 11 8 7 5 11 14 9 12 11 11 12 13 12 13 14 13 20 21 25 28 30 28 25 31 36 32 29 28 27 28 29 26 28
28 28 27 24 15 8 16 8 6 8 15 12 10 9 9 10 11 10 7 9 9 11 14 9 13 14 17 16 20 22 26 32 30 24 24 30 29 34 31 29 27 26 25 30 29
31 29 27 22 10 4 10 5 6 7 10 13 11 10 9 7 10 7 4 10 14 14 15 14 16 16 17 20 20 22 25 28 27 29 23 22 26 33 26 28 27 27 28 27 22
35 32 27 15 2 5 6 5 5 9 7 2 5 7 4 5 11 14 7 13 14 16 16 16 17 19 19 16 18 20 22 24 27 24 26 26 28 32 30 30 25 26 28 28 28
37 35 22 1 3 2 3 5 8 6 6 8 7 3 6 7 13 5 13 10 14 17 17 17 16 16 16 20 20 22 20 22 21 21 21 26 23 26 26 27 27 28 26 24 23
37 30 16 9 8 4 6 9 9 5 4 4 4 5 7 10 10 9 5 12 17 19 18 19 20 22 23 22 18 22 22 22 23 22 24 29 21 24 24 25 26 26 27 28 25
35 19 4 2 4 4 7 7 5 6 0 4 2 6 12 13 9 12 10 12 19 20 19 21 11 22 20 23 21 23 18 24 21 20 21 28 26 24 23 26 22 19 20 17 19
33 9 3 3 5 5 8 8 6 6 6 2 5 12 15 14 11 9 12 14 14 12 16 19 20 9 17 16 22 17 18 13 16 17 19 22 24 23 23 28 27 26 24 23 14
24 4 4 5 6 7 10 9 4 5 7 10 10 16 16 3 6 9 15 12 10 6 12 11 16 8 8 15 17 16 18 14 21 15 17 22 25 21 26 28 13 18 16 17 13
16 4 9 3 5 7 8 8 3 8 7 10 13 11 10 10 9 14 8 9 6 10 6 12 10 19 15 10 13 16 17 16 20 24 18 18 28 28 29 23 18 18 12 10 10
16 9 5 2 5 10 8 10 8 1 9 10 13 7 14 15 15 12 11 4 8 10 8 14 19 16 14 9 13 14 14 4 14 23 24 17 23 17 30 28 17 16 6 3 9
9 5 7 1 6 8 6 9 8 6 9 7 10 13 16 13 13 16 9 14 5 10 16 17 15 18 17 14 15 8 12 15 9 10 14 18 10 13 25 30 21 7 5 6 4
8 4 5 3 6 4 6 6 5 7 5 7 10 13 12 13 17 17 18 13 9 12 17 22 11 14 21 16 17 2 11 10 9 8 19 16 19 21 25 26 27 12 6 9 9
7 5 4 3 3 7 10 11 6 9 9 4 7 12 12 17 9 13 17 17 12 16 6 9 6 9 15 16 15 7 12 9 12 8 19 8 7 18 16 17 11 9 11 15 11
5 4 3 2 2 7 10 10 7 4 9 7 9 12 15 15 15 12 19 21 10 10 18 12 14 17 16 22 9 6 19 14 17 10 15 16 17 19 27 3 9 8 10 14 13
1 5 4 5 7 11 10 14 10 10 3 7 9 10 12 12 20 20 19 23 22 17 9 5 12 19 21 24 24 20 19 14 19 21 20 19 17 12 18 21 24 10 12 14 10
5 5 8 11 8 5 8 10 15 8 15 16 15 15 13 16 18 25 22 23 15 7 5 7 9 15 20 22 23 23 21 18 21 26 23 22 22 16 17 19 18 15 14 12 12
4 3 5 9 8 6 4 8 12 13 11 12 17 18 19 19 19 22 22 24 22 6 3 5 8 10 17 19 14 16 19 19 18 23 22 21 19 17 15 16 16 14 14 12 14
Wind_Direction
345 341 339 338 336 334 332 331 332 334 332 327 326 329 327 321 323 293 259 28 354 350 321 279 259 245 234 239 237 228 248 247 250 254 264 266 269 247 264 247 250 231 259 327 148
343 340 338 336 335 333 332 334 335 334 333 329 324 330 330 327 311 258 107 70 338 331 309 276 252 230 229 231 234 229 239 241 248 255 254 259 251 263 243 226 254 216 49 262 153
342 339 335 333 333 331 329 326 326 328 333 338 338 331 327 327 268 76 33 308 316 303 281 277 265 264 235 232 224 231 240 248 251 252 265 258 252 259 262 232 225 211 189 201 189
340 337 333 331 330 329 325 321 318 319 326 328 326 327 324 294 2 75 332 341 350 302 280 262 246 244 243 238 234 235 241 248 256 272 281 256 267 271 269 251 257 216 183 181 192
340 336 332 330 328 327 321 315 310 312 321 321 320 330 320 223 55 22 322 314 311 310 282 277 265 258 247 245 246 243 246 248 253 255 260 265 241 257 256 262 247 262 198 195 213
341 336 333 330 327 325 318 310 304 308 315 316 309 321 268 260 359 326 318 315 295 302 311 279 270 272 280 268 250 254 250 253 254 253 251 247 252 254 253 250 259 247 258 236 239
341 338 334 330 327 324 318 308 303 307 306 306 306 300 275 45 323 325 314 320 301 298 288 299 299 276 270 255 253 265 266 266 257 248 247 250 254 241 250 255 245 250 239 243 249
342 340 336 331 328 326 318 312 306 300 291 281 297 271 286 94 336 331 327 321 309 278 270 280 288 280 271 267 279 278 260 250 244 242 247 242 250 245 249 253 248 247 253 238 235
345 341 335 332 330 327 318 322 313 287 240 248 228 231 244 184 273 337 318 316 311 298 286 268 275 277 267 247 254 247 250 246 255 243 241 234 247 247 251 253 252 240 243 244 244
344 340 336 330 330 325 316 310 277 213 208 223 258 256 228 337 337 321 308 304 297 297 282 239 260 250 243 236 246 254 244 248 253 258 242 232 241 245 245 249 246 257 262 241 238
341 336 332 327 326 321 321 267 214 204 227 289 315 293 290 331 310 305 321 302 271 277 273 278 268 252 268 273 271 275 272 276 277 273 246 251 244 245 246 240 250 255 243 237 250
345 335 328 324 319 297 294 347 32 335 297 279 253 264 272 295 291 326 289 298 305 295 298 278 256 260 260 267 278 277 275 270 273 271 277 275 267 266 251 246 241 245 253 258 254
348 336 329 327 287 266 312 32 333 329 269 184 214 243 260 272 300 300 292 298 286 289 289 281 292 300 291 267 264 265 263 272 278 283 272 261 255 261 255 253 249 246 250 254 253
349 341 332 5 267 334 185 338 317 322 272 129 196 168 228 283 272 314 278 278 284 289 294 286 287 273 279 273 270 267 271 276 274 264 260 253 262 254 249 250 250 246 243 246 253
347 341 336 205 330 280 353 320 318 238 269 102 148 52 257 275 293 285 340 286 280 293 294 287 293 281 273 274 263 268 276 277 268 268 257 255 256 257 250 244 240 240 245 244 242
347 343 58 123 234 5 322 324 254 232 321 163 276 260 294 303 292 285 268 261 260 260 263 272 317 291 286 287 267 271 273 267 260 261 254 249 251 251 246 250 265 260 254 250 245
345 329 227 302 349 328 315 251 246 281 121 106 322 311 310 294 330 311 308 296 290 311 299 314 300 322 295 298 251 247 253 262 252 245 252 249 257 256 258 248 256 250 250 244 250
345 293 267 268 304 312 290 259 286 336 326 358 310 304 282 333 301 291 290 300 341 4 306 315 308 333 357 300 310 255 243 251 268 264 267 239 242 254 252 259 248 294 276 264 250
347 254 237 202 291 304 277 262 305 5 358 323 307 312 318 326 339 298 302 325 328 326 312 308 303 308 302 270 304 277 255 249 262 276 291 265 270 273 240 247 241 243 228 222 239
327 279 209 291 282 284 262 269 295 353 309 303 301 283 317 324 322 316 326 324 301 290 304 295 298 304 294 252 271 249 329 261 231 253 258 258 261 268 212 237 218 219 160 284 272
283 268 93 45 271 251 273 313 330 347 310 293 309 304 299 307 305 311 293 299 305 321 314 295 294 294 280 265 273 224 218 248 181 255 272 258 293 255 210 208 222 216 78 305 306
308 272 81 338 251 219 266 8 321 288 274 268 287 294 302 318 305 297 290 294 305 316 310 299 301 279 279 271 222 243 294 271 245 273 273 267 272 301 284 168 188 86 37 350 51
308 292 112 306 315 327 312 315 274 286 302 296 289 303 311 295 307 296 304 308 335 316 323 339 272 292 284 257 27 1 278 253 261 220 257 270 281 305 99 104 82 62 5 338 357
298 294 149 56 207 293 332 310 321 323 285 327 298 308 287 291 285 284 287 290 332 300 306 316 270 261 270 283 162 220 237 214 220 253 271 265 275 308 309 33 135 70 350 324 336
316 41 7 308 334 327 317 294 293 300 302 287 279 263 308 309 308 297 303 310 305 302 249 255 260 272 274 279 286 287 285 272 271 270 270 277 282 243 277 291 311 347 332 328 336
344 344 349 291 304 330 300 312 314 336 335 308 294 315 311 284 284 294 298 294 293 284 227 207 261 271 275 276 272 270 269 269 264 271 275 281 282 272 256 276 292 298 303 308 321
23 321 313 298 285 289 313 304 317 323 299 311 322 308 298 299 305 299 291 283 279 225 225 264 254 276 276 277 284 276 264 252 257 260 269 272 278 285 281 276 284 288 283 286 287